Location: Unspecified
(0.0000°N, 0.0000°E)
Time: 03:29:15
(UTC+00:00)

N. Korean satellite - Pass Details

Date: 20 January 2018
Orbit: 458 x 514 km, 97.2° (Epoch: 24 April)

Event Time Altitude Azimuth Distance (km) Brightness Sun altitude
Rises 05:40:32 0° 37° (NE) 2,479 10.4 -7.1°
Reaches altitude 10° 05:43:01 10° 57° (ENE) 1,616 9.8 -6.6°
Maximum altitude 05:45:27 18° 102° (ESE) 1,214 10.0 -6.0°
Drops below altitude 10° 05:47:55 10° 146° (SE) 1,641 10.2 -5.4°
Sets 05:50:28 0° 165° (SSE) 2,534 10.7 -4.8°
